Regional Weather Roundup
Issued by NWS

Home | Current Version | Previous Version | Text Only | Print | Product List | Glossary Off
Versions: 1 2 3 4 5 6 7 8 9 10 11 12 13 14 15 16 17 18 19 20 21 22 23 24 25 26 27 28 29 30 31 32 33 34 35 36 37 38 39 40 41 42 43 44 45 46 47 48 49 50

000
ASUS43 KOAX 301210
RWRNE

WEATHER ROUNDUP FOR NEBRASKA
NATIONAL WEATHER SERVICE OMAHA NE
700 AM CDT SAT MAY 30 2015

NOTES: SATELLITE DATA IS BEING USED TO AUGMENT CLOUD COVER ABOVE
       12000 FEET.
       "FAIR" INDICATES FEW OR NO CLOUDS BELOW 12,000 FEET WITH NO
       SIGNIFICANT WEATHER AND/OR OBSTRUCTIONS TO VISIBILITY.

  * THESE STATIONS DO NOT REPORT WEATHER SUCH AS RAIN...SNOW OR FOG.

NEZ001>004-019>022-054>056-301300-
NEBRASKA PANHANDLE

CITY           SKY/WX    TMP DP  RH WIND       PRES   REMARKS
SCOTTSBLUFF    CLOUDY    48  46  93 SE5       30.29S
6HR MIN TEMP:  47; 6HR MAX TEMP:  48;

ALLIANCE       FOG       38  38 100 CALM      30.30S VSB<1/4
6HR MIN TEMP:  34; 6HR MAX TEMP:  41;

CHADRON        CLEAR     37  36  96 E5        30.31S WCI  33
6HR MIN TEMP:  36; 6HR MAX TEMP:  43;

KIMBALL          N/A    N/A N/A N/A MISG        N/A
SIDNEY         CLOUDY    46  43  89 SE3       30.30F
6HR MIN TEMP:  45; 6HR MAX TEMP:  46;

$$

NEZ057>060-069>072-079>082-301300-
SOUTHWEST NEBRASKA

CITY           SKY/WX    TMP DP  RH WIND       PRES   REMARKS
NORTH PLATTE   CLEAR     37  36  96 NW7       30.29S WCI  32
6HR MIN TEMP:  36; 6HR MAX TEMP:  46;

IMPERIAL       CLEAR     43  39  86 N9        30.29S
6HR MIN TEMP:  42; 6HR MAX TEMP:  49;

LEXINGTON      CLEAR     42  40  92 NW8       30.28R
MCCOOK         CLEAR     43  40  89 NW6       30.31R
6HR MIN TEMP:  43; 6HR MAX TEMP:  51;

OGALLALA       CLEAR     40  39  97 NW5       30.31S
$$

NEZ005>010-023>029-035>040-094-301300-
NORTH CENTRAL NEBRASKA

CITY           SKY/WX    TMP DP  RH WIND       PRES   REMARKS
AINSWORTH      CLEAR     39  38  96 NW7       30.31R WCI  34
BROKEN BOW     CLEAR     43  39  86 N15       30.26S
6HR MIN TEMP:  42; 6HR MAX TEMP:  49;

O`NEILL        CLEAR     42  40  94 N10       30.28R
ORD            CLEAR     42  39  89 NW12      30.25R
6HR MIN TEMP:  41; 6HR MAX TEMP:  49;

THEDFORD       CLOUDY    40  39  95 NW5       30.32R
$$

NEZ041-046>049-061>064-073>077-083>087-301300-
SOUTH CENTRAL NEBRASKA

CITY           SKY/WX    TMP DP  RH WIND       PRES   REMARKS
GRAND ISLAND   CLOUDY    47  42  83 N14       30.23R
6HR MIN TEMP:  47; 6HR MAX TEMP:  49; 6HR PCP:  0.01;

AURORA         CLOUDY    49  45  87 N14       30.21R
HASTINGS       MOCLDY    48  42  80 N12       30.22R
6HR MIN TEMP:  48; 6HR MAX TEMP:  52; 6HR PCP: TRACE;

HEBRON         CLOUDY    50  45  81 N15       30.19R
HOLDREGE       CLEAR     45  40  85 N10G18    30.25R
KEARNEY *      CLEAR     45  37  76 N15G21    30.25R
YORK           CLOUDY    48  45  87 N10       30.20R
$$

NEZ011>018-030>034-042>045-301300-
NORTHEAST NEBRASKA

CITY           SKY/WX    TMP DP  RH WIND       PRES   REMARKS
NORFOLK        PTCLDY    47  42  83 N14       30.20R
6HR MIN TEMP:  47; 6HR MAX TEMP:  50; 6HR PCP: TRACE;

ALBION         MOCLDY    46  40  80 N10G20    30.23R
BLAIR          CLOUDY    51  45  80 N13G23    30.13R
COLUMBUS *     CLOUDY    48  39  71 N12G18    30.21R
FREMONT        CLOUDY    52  45  77 N9        30.16R
TEKAMAH        CLOUDY    53  45  74 N23       30.14S
6HR MIN TEMP:  52; 6HR MAX TEMP:  53; 6HR PCP: TRACE;

WAYNE          MOCLDY    47  43  85 N15       30.20R
$$

NEZ050>053-065>068-078-088>093-301300-
SOUTHEAST NEBRASKA

CITY           SKY/WX    TMP DP  RH WIND       PRES   REMARKS
LINCOLN        CLOUDY    52  45  77 N14       30.16R
6HR MIN TEMP:  52; 6HR MAX TEMP:  55;

OMAHA EPPLEY   CLOUDY    52  48  86 N17G25    30.12R
6HR MIN TEMP:  50; 6HR MAX TEMP:  54; 6HR PCP: TRACE;

BEATRICE       CLOUDY    51  46  82 N14G21    30.15R
FALLS CITY     CLOUDY    52  49  89 N13G24    30.10R
6HR MIN TEMP:  52; 6HR MAX TEMP:  60; 6HR PCP: TRACE;

NEBRASKA CITY  CLOUDY    51  49  91 N13       30.11R
PLATTSMOUTH    CLOUDY    51  47  86 N10G16    30.11R
$$

NEZ044-045-051>053-067-301300-
OMAHA AREA

CITY           SKY/WX    TMP DP  RH WIND       PRES   REMARKS
OMAHA EPPLEY   CLOUDY    52  48  86 N17G25    30.12R
6HR MIN TEMP:  50; 6HR MAX TEMP:  54; 6HR PCP: TRACE;

BLAIR          CLOUDY    51  45  80 N13G23    30.13R
FREMONT        CLOUDY    52  45  77 N9        30.16R
MILLARD        CLOUDY    52  47  83 N6        30.13R
OFFUTT AFB     CLOUDY    51  48  89 N12G17    30.11R
PLATTSMOUTH    CLOUDY    51  47  86 N10G16    30.11R
WAHOO          CLOUDY    52  46  79 N16       30.15R
$$


USA.gov is the U.S. government's official web portal to all federal, state and local government web resources and services.